[[{"header":{"parameterUnit":"m.s-1","parameterCategory":1,"la1":30.2991,"la2":30.254,"lo1":-89.0895,"lo2":-89.0444,"dy":0.0017,"dx":0.0017,"nx":28,"ny":28,"refTime":"2025-09-15T09:00:00:Z","depth":0,"parameterNumber":2,"parameterNumberName":"U-component_of_WINDS"},"data":[0,0,0,0,0,0,0,0,0,0,0,0,0,0,0,0,0,0,0,0,0,0,0,0,0,0,0,0,0,0,0,0,0,0,0,0,0,0,0,0,0,0,0,0,0,0,0,0,0,0,0,0,0,0,0,0,0,0,-0.3115,-0.3115,0,-0.309,-0.309,-0.3089,-0.3051,-0.305,-0.3049,-0.3049,-0.3025,-0.3025,-0.3025,0,0,0,0,0,0,0,0,0,0,0,0,0,-0.3133,-0.3132,-0.3115,-0.3115,-0.3114,-0.309,-0.309,-0.3089,-0.3051,-0.305,-0.3049,-0.3048,-0.3025,-0.3025,-0.3025,0,0,0,0,0,0,0,0,0,0,0,0,0,-0.3118,-0.3132,-0.3115,-0.3092,-0.309,-0.309,-0.3089,-0.3089,-0.3051,-0.305,-0.3049,-0.3048,-0.3025,-0.3025,-0.3025,-0.3046,0,0,-0.3025,-0.3025,0,0,0,0,0,0,0,0,-0.3119,-0.3117,-0.3096,-0.3094,-0.3091,-0.3072,-0.3087,-0.3075,-0.3051,-0.3066,-0.3049,-0.3047,-0.3042,-0.304,-0.3038,-0.3045,-0.3044,-0.3025,-0.3025,-0.3025,-0.3025,0,0,0,0,0,0,0,-0.312,-0.3118,-0.3105,-0.3096,-0.3093,-0.3084,-0.3081,-0.3085,-0.306,-0.3064,-0.3062,-0.3059,-0.304,-0.3038,-0.3037,-0.3044,-0.3025,-0.3025,-0.3025,-0.3025,-0.3068,-0.3069,0,0,0,0,0,0,-0.3124,-0.3119,-0.3106,-0.3104,-0.3103,-0.3085,-0.3081,-0.3079,-0.306,-0.3056,-0.306,-0.3057,-0.3039,-0.3037,-0.3036,-0.3061,-0.3025,-0.3025,-0.3025,-0.3067,-0.3068,-0.3069,0,0,0,0,0,0,-0.3124,-0.3123,-0.3107,-0.3111,-0.3108,-0.3085,-0.3084,-0.308,-0.3077,-0.3056,-0.3052,-0.3062,-0.3038,-0.3036,-0.3044,-0.3059,-0.3025,-0.3025,-0.3066,-0.3067,-0.3069,-0.3109,0,0,0,0,0,0,-0.3125,-0.3124,-0.3131,-0.3111,-0.3108,-0.3115,-0.3085,-0.308,-0.3077,-0.3073,-0.3057,-0.3054,-0.3037,-0.3044,-0.3044,-0.3059,-0.3025,-0.3064,-0.3066,-0.3068,-0.3106,-0.3112,-0.3116,0,0,0,0,0,-0.3126,-0.3143,-0.3131,-0.313,-0.3117,-0.3116,-0.3114,-0.3093,-0.3078,-0.3086,-0.3073,-0.3054,-0.3057,-0.3045,-0.3045,-0.306,-0.3063,-0.3066,-0.3068,-0.3104,-0.3111,-0.3116,0,0,0,0,0,0,-0.3166,-0.314,-0.3127,-0.3138,-0.3129,-0.3109,-0.3118,-0.3101,-0.3097,-0.3094,-0.3069,-0.3066,-0.3077,-0.3069,-0.3056,-0.3079,-0.3057,-0.306,-0.3085,-0.3091,-0.3096,-0.3098,-0.3025,0,0,0,0,0,-0.3176,-0.3176,-0.3154,-0.3166,-0.3163,-0.3141,-0.314,-0.3125,-0.3115,-0.3111,-0.3098,-0.309,-0.3089,-0.3089,-0.3087,-0.3104,-0.3101,-0.3114,-0.3119,-0.3124,-0.3127,-0.3136,-0.3142,-0.3078,-0.3078,-0.3078,0,0,-0.3197,-0.3183,-0.3185,-0.3174,-0.3165,-0.3167,-0.3138,-0.3141,-0.3143,-0.3112,-0.3119,-0.3109,-0.3098,-0.3111,-0.3116,-0.3105,-0.3143,-0.3127,-0.3131,-0.3131,-0.3139,-0.3145,-0.3151,-0.3079,-0.3079,-0.3079,0,0,-0.3236,-0.3225,-0.3234,-0.3226,-0.3213,-0.3199,-0.3201,-0.3183,-0.3176,-0.3182,-0.3159,-0.3161,-0.3159,-0.3153,-0.315,-0.3187,-0.317,-0.3187,-0.3214,-0.3224,-0.3229,-0.3233,-0.3248,-0.3253,-0.3189,-0.319,-0.319,0,-0.3264,-0.3265,-0.3242,-0.3246,-0.3243,-0.3214,-0.3224,-0.3218,-0.3205,-0.3204,-0.3191,-0.3189,-0.318,-0.3191,-0.32,-0.3198,-0.3201,-0.3189,-0.323,-0.3234,-0.3238,-0.3251,-0.3257,-0.3192,-0.3192,-0.3191,-0.3191,0,-0.3301,-0.3302,-0.3312,-0.33,-0.3297,-0.3304,-0.3283,-0.3283,-0.3269,-0.3256,-0.3263,-0.3251,-0.3246,-0.3248,-0.3233,-0.3257,-0.3251,-0.3234,-0.3212,-0.3247,-0.3259,-0.3264,-0.3195,-0.3194,-0.3193,-0.3193,0,0,-0.3366,-0.334,-0.3344,-0.3339,-0.3322,-0.3323,-0.333,-0.3324,-0.3326,-0.3318,-0.3324,-0.3323,-0.3308,-0.3304,-0.3289,-0.3297,-0.3329,-0.3279,-0.3279,-0.329,-0.3356,-0.337,-0.3376,-0.3317,-0.3318,-0.3318,-0.3357,0,-0.3403,-0.3412,-0.3391,-0.3405,-0.3407,-0.338,-0.3385,-0.3376,-0.3365,-0.3365,-0.3352,-0.3353,-0.3332,-0.3329,-0.3336,-0.3324,-0.3342,-0.332,-0.3323,-0.3324,-0.3328,-0.3382,-0.3396,-0.3434,-0.3362,-0.3363,-0.3363,0,-0.3448,-0.3442,-0.3456,-0.3439,-0.3439,-0.3445,-0.3439,-0.3439,-0.3428,-0.3419,-0.3415,-0.3397,-0.3403,-0.3381,-0.339,-0.3375,-0.3375,-0.3369,-0.337,-0.3371,-0.3347,-0.3386,-0.3445,-0.3451,-0.337,-0.337,-0.3369,0,-0.3495,-0.3491,-0.3499,-0.3495,-0.3475,-0.348,-0.3472,-0.346,-0.3458,-0.3453,-0.3452,-0.3448,-0.3446,-0.3444,-0.3426,-0.3411,-0.3438,-0.3413,-0.3431,-0.3432,-0.3439,-0.344,-0.3501,-0.3437,-0.3437,-0.3437,-0.3437,0,-0.354,-0.355,-0.352,-0.3525,-0.3537,-0.3513,-0.3525,-0.3514,-0.3504,-0.3507,-0.3483,-0.3487,-0.3462,-0.3464,-0.3449,-0.346,-0.3459,-0.3453,-0.3449,-0.3456,-0.3457,-0.3456,-0.3454,-0.3438,-0.3438,-0.3438,-0.3438,0,-0.3595,-0.3575,-0.3583,-0.3563,-0.3558,-0.3568,-0.3551,-0.3556,-0.3542,-0.3547,-0.3547,-0.3526,-0.3527,-0.3508,-0.3505,-0.3495,-0.3513,-0.3504,-0.3516,-0.3514,-0.3534,-0.3533,-0.3598,-0.3606,-0.3536,-0.3537,-0.3537,0,-0.3626,-0.3633,-0.3614,-0.3614,-0.3607,-0.3608,-0.3606,-0.3583,-0.3582,-0.3571,-0.3577,-0.3576,-0.3573,-0.3576,-0.3561,-0.3559,-0.3551,-0.3574,-0.355,-0.3557,-0.3553,-0.3553,-0.3555,-0.3579,-0.358,-0.3581,-0.3582,0,-0.3683,-0.3672,-0.367,-0.3665,-0.3663,-0.3658,-0.3651,-0.3653,-0.3628,-0.3628,-0.3628,-0.3626,-0.3623,-0.3622,-0.3617,-0.361,-0.3592,-0.3589,-0.3593,-0.3601,-0.3608,-0.3606,-0.3531,-0.3588,-0.3587,-0.3587,-0.3586,-0.3586,-0.3728,-0.3733,-0.3721,-0.3719,-0.3712,-0.3706,-0.371,-0.3696,-0.3695,-0.3691,-0.3677,-0.368,-0.3669,-0.3661,-0.3655,-0.3657,-0.3646,-0.3652,-0.3654,-0.3656,-0.3661,-0.3607,-0.3656,-0.3656,-0.3656,-0.3656,-0.3656,0,-0.3785,-0.3775,-0.3774,-0.3765,-0.3764,-0.3746,-0.3738,-0.3739,-0.3741,-0.3732,-0.373,-0.3731,-0.373,-0.3715,-0.3713,-0.3718,-0.371,-0.3718,-0.3718,-0.3717,-0.367,-0.3667,-0.3725,-0.3725,-0.3725,-0.3725,-0.3725,-0.3725,-0.3815,-0.3823,-0.3812,-0.3817,-0.3807,-0.3809,-0.3806,-0.3801,-0.3794,-0.3795,-0.3794,-0.3784,-0.3773,-0.377,-0.3769,-0.3764,-0.3766,-0.3777,-0.377,-0.3727,-0.372,-0.3714,-0.3711,-0.3777,-0.3777,-0.3817,-0.3818,-0.3818]},{"header":{"parameterUnit":"m.s-1","parameterCategory":1,"la1":30.2991,"la2":30.254,"lo1":-89.0895,"lo2":-89.0444,"dy":0.0017,"dx":0.0017,"nx":28,"ny":28,"refTime":"2025-09-15T09:00:00:Z","depth":0,"parameterNumber":3,"parameterNumberName":"V-component_of_WINDS"},"data":[0,0,0,0,0,0,0,0,0,0,0,0,0,0,0,0,0,0,0,0,0,0,0,0,0,0,0,0,0,0,0,0,0,0,0,0,0,0,0,0,0,0,0,0,0,0,0,0,0,0,0,0,0,0,0,0,0,0,3.3311,3.3311,0,3.3293,3.3293,3.3292,3.3269,3.3269,3.3269,3.3268,3.3248,3.3247,3.3247,0,0,0,0,0,0,0,0,0,0,0,0,0,3.3327,3.3327,3.3311,3.3311,3.3311,3.3293,3.3292,3.3292,3.327,3.3269,3.3269,3.3268,3.3248,3.3247,3.3247,0,0,0,0,0,0,0,0,0,0,0,0,0,3.3315,3.3327,3.3312,3.3298,3.3296,3.3293,3.3292,3.3292,3.327,3.3269,3.3269,3.3268,3.3248,3.3247,3.3247,3.3256,0,0,3.3246,3.3246,0,0,0,0,0,0,0,0,3.3316,3.3315,3.33,3.3298,3.3297,3.3283,3.329,3.328,3.327,3.328,3.3268,3.3268,3.326,3.3258,3.3256,3.3255,3.3254,3.3246,3.3246,3.3246,3.3246,0,0,0,0,0,0,0,3.3317,3.3315,3.3304,3.33,3.3298,3.3292,3.329,3.3288,3.3273,3.3279,3.3277,3.3275,3.3259,3.3256,3.3255,3.3253,3.3246,3.3246,3.3246,3.3245,3.3258,3.3259,0,0,0,0,0,0,3.332,3.3316,3.3305,3.3303,3.3305,3.3292,3.329,3.3288,3.3273,3.327,3.3276,3.3274,3.3257,3.3256,3.3254,3.3263,3.3246,3.3245,3.3245,3.3258,3.3258,3.3259,0,0,0,0,0,0,3.332,3.3319,3.3305,3.3309,3.3307,3.3292,3.3291,3.3288,3.3285,3.327,3.3268,3.3276,3.3257,3.3255,3.3256,3.3262,3.3245,3.3245,3.3257,3.3258,3.3259,3.328,0,0,0,0,0,0,3.3321,3.3319,3.3322,3.331,3.3307,3.3307,3.3291,3.3288,3.3285,3.3283,3.327,3.3267,3.3256,3.3256,3.3255,3.3261,3.3245,3.3256,3.3257,3.3258,3.3279,3.3282,3.3284,0,0,0,0,0,3.3321,3.3329,3.3323,3.3321,3.3311,3.3307,3.3306,3.3293,3.3286,3.3288,3.3279,3.3268,3.3262,3.3257,3.3255,3.3261,3.3256,3.3257,3.3258,3.3278,3.3281,3.3284,0,0,0,0,0,0,3.3342,3.3327,3.332,3.3324,3.3317,3.3304,3.3307,3.3297,3.3292,3.3291,3.3275,3.3272,3.3275,3.3268,3.3263,3.3268,3.3257,3.3258,3.3272,3.3275,3.3278,3.3279,3.3244,0,0,0,0,0,3.3347,3.3346,3.3333,3.3338,3.3335,3.3322,3.332,3.3311,3.3303,3.33,3.329,3.3283,3.328,3.3277,3.3273,3.3278,3.3275,3.3282,3.3284,3.3287,3.3287,3.3289,3.3292,3.3263,3.3263,3.3263,0,0,3.3358,3.3349,3.3349,3.3342,3.3335,3.3334,3.3319,3.3319,3.3317,3.33,3.3299,3.3293,3.3283,3.3286,3.3287,3.3281,3.3295,3.3288,3.329,3.3289,3.329,3.3293,3.3296,3.3264,3.3264,3.3263,0,0,3.3375,3.3369,3.3372,3.3367,3.3358,3.3349,3.335,3.3338,3.3333,3.3333,3.332,3.3318,3.3313,3.3307,3.3303,3.332,3.3309,3.3319,3.3332,3.3334,3.3336,3.3338,3.3343,3.3345,3.332,3.332,3.332,0,3.3389,3.3387,3.3375,3.3375,3.3372,3.3357,3.336,3.3355,3.3345,3.3343,3.3337,3.3329,3.3322,3.3323,3.3327,3.3325,3.3325,3.3319,3.3337,3.3339,3.334,3.3345,3.3347,3.3321,3.3321,3.3321,3.3321,0,3.3404,3.3403,3.3406,3.3397,3.3395,3.3396,3.3384,3.3383,3.3375,3.3367,3.3367,3.3358,3.3352,3.3352,3.3344,3.3352,3.3348,3.334,3.3328,3.3344,3.3348,3.335,3.3323,3.3322,3.3322,3.3322,0,0,3.3432,3.3418,3.3419,3.3415,3.3405,3.3404,3.3405,3.3399,3.3398,3.3393,3.3392,3.3389,3.3381,3.3377,3.3368,3.337,3.3383,3.3361,3.336,3.3364,3.339,3.3396,3.3398,3.3377,3.3377,3.3377,3.3391,0,3.3447,3.3448,3.3437,3.3441,3.3439,3.3426,3.3427,3.3421,3.3414,3.3411,3.3403,3.3401,3.3391,3.3388,3.339,3.3381,3.3388,3.338,3.3375,3.3375,3.3376,3.34,3.3406,3.3419,3.3393,3.3393,3.3393,0,3.3464,3.3459,3.3463,3.3453,3.3452,3.3453,3.3447,3.3446,3.3438,3.3433,3.3429,3.3419,3.3419,3.341,3.3409,3.3404,3.3402,3.3397,3.3398,3.3395,3.3384,3.3398,3.3423,3.3425,3.3396,3.3395,3.3395,0,3.3483,3.3478,3.3479,3.3476,3.3465,3.3466,3.3461,3.3454,3.3451,3.3447,3.3445,3.344,3.3437,3.3434,3.3423,3.3417,3.3423,3.3413,3.3418,3.3418,3.3418,3.3418,3.3443,3.342,3.342,3.342,3.342,0,3.3499,3.3501,3.3488,3.3488,3.3491,3.3479,3.3482,3.3476,3.3469,3.3469,3.3457,3.3456,3.3443,3.3441,3.3432,3.3433,3.3432,3.3427,3.3424,3.3427,3.3428,3.3424,3.3422,3.342,3.342,3.342,3.342,0,3.352,3.3511,3.3511,3.3501,3.3499,3.3501,3.3492,3.3492,3.3485,3.3484,3.3483,3.3472,3.3469,3.3458,3.3452,3.3447,3.3449,3.3445,3.3452,3.345,3.3455,3.3454,3.3477,3.3479,3.3456,3.3457,3.3457,0,3.353,3.3532,3.3522,3.3521,3.3517,3.3515,3.3513,3.3502,3.35,3.3493,3.3494,3.349,3.3486,3.3482,3.3473,3.3468,3.3463,3.3472,3.3462,3.3465,3.3462,3.3461,3.3461,3.3473,3.3473,3.3474,3.3474,0,3.3549,3.3545,3.3542,3.3538,3.3536,3.3532,3.3528,3.3527,3.3515,3.3514,3.3511,3.3508,3.3502,3.3498,3.3493,3.3487,3.3478,3.3477,3.3478,3.348,3.3483,3.348,3.3455,3.3476,3.3476,3.3476,3.3476,3.3476,3.3564,3.3565,3.3558,3.3556,3.3552,3.3548,3.3547,3.3541,3.3538,3.3533,3.3527,3.3525,3.3518,3.351,3.3505,3.3503,3.3498,3.35,3.35,3.35,3.3501,3.3485,3.3502,3.3502,3.3502,3.3502,3.3502,0,3.3582,3.3577,3.3575,3.3569,3.3567,3.3561,3.3555,3.3554,3.3552,3.3547,3.3544,3.3541,3.3537,3.3528,3.3524,3.3524,3.3519,3.3523,3.3522,3.3521,3.3506,3.3505,3.3526,3.3526,3.3526,3.3526,3.3526,3.3526,3.359,3.3591,3.3586,3.3585,3.358,3.3578,3.3576,3.3572,3.3568,3.3565,3.3562,3.3557,3.355,3.3545,3.3542,3.3539,3.3538,3.3542,3.3538,3.3524,3.3522,3.3519,3.3518,3.3542,3.3542,3.3553,3.3553,3.3553]}]]